sat.trackr.live / text

‹ back to catalog

STARLINK-5349

NORAD 56512 · 2023-065K

PAYLOAD ACTIVE UNKNOWN

§ Identity

Operator
Country
US
Launch date
2023-05-14
Launch site
AFETR
Launch vehicle
Mass (kg)
RCS (m²)

Purposes: comms

External: N2YO · Heavens-Above · Gunter

§ Orbital elements

Epoch: 2026-09-20T22:29:35.510784Z

Period
94.27 min
Inclination
43.0015°
Eccentricity
0.0001327
Mean motion
15.27577012 rev/d
Perigee alt
482.1 km
Apogee alt
484.0 km
Semi-major
6,861.2 km
B*
9.9890e-6
RAAN
189.5375°
Arg perigee
263.0788°
Mean anomaly
96.9913°
Rev number
18,646

§ Raw data

STARLINK-53491 56512U 23065K   26263.93721656  .00000013  00000+0  99890-5 0  99962 56512  43.0015 189.5375 0001327 263.0788  96.9913 15.27577012186468

JSON: /api/v1/satellites/56512 · /tle

For live sub-satellite position, see the globe view (requires WebGL).

§ Visibility from observer

Set your observer location to see the next 7 days of passes ≥ 10°. The values pass through the URL so the page stays shareable.

No JS? Fill the form by hand. The geolocation button needs JavaScript.